Vorticity
7 5 7 11 2 9 7 6 12 8 2 3 1 7 6 5 1 -1 21 7 7 3 4 3 3 3 3 2 3 4 7 6 5 5 6 6 5 5 5 5 5 5 5 5 5 6 6 5 5
5 4 9 5 3 6 7 9 10 3 -3 -1 3 4 9 12 14 12 13 2 9 3 4 4 3 3 3 3 5 7 6 6 7 5 6 6 5 4 4 6 5 4 5 6 5 2 2 2 3
7 9 2 6 2 10 17 7 -1 5 8 1 -1 6 5 13 6 9 7 6 7 6 4 5 4 4 4 6 7 7 6 6 8 7 6 6 5 5 5 5 5 6 6 2 2 4 5 5 7
6 4 4 6 12 12 9 7 0 10 7 1 -3 5 4 3 6 7 8 10 7 5 4 7 5 6 8 7 6 7 7 7 8 7 6 7 7 7 5 5 4 5 2 3 2 1 2 7 8
5 5 2 5 12 12 11 2 2 9 3 3 2 5 2 7 7 8 8 6 4 5 5 7 7 7 6 6 5 5 3 4 4 7 7 6 7 1 -11 -1 6 5 8 4 -0 2 9 7 6
3 7 6 7 14 8 10 7 -1 5 6 2 7 7 7 7 7 9 8 7 6 6 7 7 6 5 6 2 4 3 3 8 5 8 8 6 8 12 1 7 2 0 1 6 7 7 6 6 7
12 10 12 8 8 2 9 9 7 6 -2 5 -0 3 3 12 8 5 9 6 5 5 5 5 6 6 4 -1 7 5 10 1 1 2 6 10 15 9 6 -2 -1 2 6 6 5 6 6 7 8
9 8 2 7 5 8 7 13 7 9 -2 4 7 -2 7 17 10 4 8 6 6 7 5 5 6 6 -2 6 4 6 7 3 10 13 12 34 14 9 -2 14 1 1 8 6 5 7 9 9 8
5 8 6 8 2 15 3 11 1 6 -2 5 12 2 10 16 9 2 10 7 6 7 6 3 6 1 8 4 2 1 7 7 10 7 9 14 7 6 5 5 6 7 4 6 9 11 9 7 7
0 6 7 1 1 8 4 9 5 3 8 10 13 4 8 16 10 6 9 8 7 7 6 2 1 5 6 3 4 1 7 9 11 5 3 4 1 2 6 7 4 6 8 10 7 7 9 11 13
11 10 8 10 4 9 11 10 3 8 7 7 9 7 2 14 11 5 7 6 6 6 5 3 1 7 3 3 3 4 9 12 9 4 3 6 8 7 4 4 5 7 10 8 9 12 13 11 9
9 7 6 2 4 12 10 10 7 4 3 8 7 8 6 14 13 6 7 8 7 5 3 3 6 11 3 3 4 8 13 13 5 6 3 7 4 4 4 4 7 8 8 10 10 9 8 8 8
7 5 6 -0 7 9 5 14 1 4 2 6 11 7 8 12 10 6 5 7 5 5 1 6 9 5 3 4 7 14 10 10 6 11 3 5 4 3 3 5 8 10 9 10 10 8 7 7 7
3 4 3 8 3 5 16 4 9 3 2 7 9 7 6 12 10 9 6 9 5 6 4 6 6 6 4 6 12 10 14 17 8 5 6 5 3 3 5 7 8 8 9 8 7 7 8 7 7
15 9 8 5 11 10 14 5 19 3 5 4 4 7 8 10 8 8 5 11 3 4 7 6 5 6 6 10 12 10 3 7 5 6 5 5 4 6 6 8 8 8 7 7 7 7 7 7 6
12 14 10 5 8 5 2 -4 19 14 9 4 7 1 12 5 13 8 5 9 3 2 5 7 6 5 8 12 9 9 5 6 5 4 4 5 7 7 8 8 8 7 7 6 7 7 6 7 7
13 6 4 7 15 7 10 1 3 6 3 7 10 8 6 7 9 8 7 8 7 1 1 8 5 5 7 9 9 8 6 5 3 4 5 6 7 10 10 9 7 7 7 7 7 7 7 7 8
13 3 4 4 10 8 2 0 -2 3 5 4 4 5 15 8 6 12 9 7 8 4 1 1 3 6 6 7 8 8 5 4 4 5 6 8 10 11 9 8 7 7 7 8 8 7 7 7 7
7 5 6 6 5 3 15 13 8 13 13 9 5 7 13 12 7 5 9 8 6 5 4 1 -1 5 6 6 9 8 6 6 9 6 10 11 10 9 9 9 9 8 9 8 8 8 7 8 8
11 10 11 15 8 11 1 7 0 8 -6 3 5 6 21 14 7 4 5 8 7 9 5 3 2 4 4 5 6 8 6 8 8 10 8 6 3 2 3 5 5 6 7 7 7 7 8 8 7
4 7 5 2 6 1 9 11 33 17 24 12 8 7 5 21 12 5 3 7 11 6 11 14 5 4 4 4 6 11 10 10 9 7 4 4 7 9 8 6 7 9 8 8 8 8 8 7 6
7 14 9 9 10 8 -6 -3 6 -4 8 5 7 7 11 12 19 12 5 6 6 10 4 2 10 3 3 3 4 11 8 9 6 3 5 8 7 7 8 7 8 8 9 9 8 8 7 7 8
10 -2 5 6 10 12 13 16 -5 31 9 11 -4 -7 8 9 10 13 22 11 4 6 11 -4 22 12 2 6 3 9 8 7 5 5 7 5 5 11 13 13 7 5 6 7 7 7 8 8 7
-8 14 13 20 25 36 42 22 16 24 20 13 14 15 3 11 16 7 20 29 8 9 7 -0 -2 13 7 6 3 7 9 6 7 7 5 3 3 5 7 5 9 6 8 7 5 4 4 5 6
11 10 11 18 2 -8 2 24 -3 7 22 15 9 8 15 8 6 15 12 22 34 14 5 1 6 17 10 10 4 6 10 6 5 3 1 2 0 3 3 2 0 1 6 7 0 3 3 2 5
13 9 -9 17 -1 -29 -3 15 -6 5 13 30 44 32 20 18 15 12 19 -13 5 29 17 10 7 12 12 11 6 5 8 7 5 4 2 1 0 3 3 2 2 3 2 -0 2 6 6 5 3
18 5 5 10 25 31 16 -3 3 14 5 10 8 4 8 11 7 5 12 11 10 3 35 16 18 6 19 10 8 3 8 9 5 5 3 2 1 2 3 2 3 2 3 3 0 5 10 8 7
1 3 2 -2 12 16 -18 7 15 11 6 2 14 10 2 6 1 -6 -3 21 22 16 25 21 15 4 20 15 10 3 7 8 7 5 4 3 3 2 2 4 4 3 6 6 8 12 2 -1 28
7 10 6 18 3 -6 12 7 -0 8 -0 -5 8 2 14 13 18 16 15 13 7 33 32 14 15 3 14 13 10 4 3 6 6 5 4 3 2 2 1 6 6 -6 21 12 17 -6 -14 15 14
4 2 -0 -13 7 -17 3 -8 40 41 -15 10 -1 4 25 16 10 6 3 18 12 15 33 14 4 7 16 15 13 7 2 2 5 5 5 4 6 6 3 4 -0 25 13 15 8 0 11 17 5
Height
3193 3193 3194 3194 3199 3196 3196 3199 3198 3198 3198 3196 3197 3197 3198 3196 3196 3199 3193 3194 3196 3197 3198 3198 3199 3199 3200 3200 3201 3201 3201 3202 3201 3201 3202 3202 3203 3203 3203 3203 3202 3202 3202 3201 3201 3200 3200 3199 3198
3193 3194 3195 3195 3197 3191 3196 3198 3199 3199 3196 3196 3196 3196 3196 3195 3194 3194 3194 3195 3197 3197 3198 3198 3199 3200 3200 3200 3201 3201 3201 3202 3202 3201 3201 3202 3202 3203 3203 3203 3203 3202 3201 3200 3200 3200 3200 3199 3198
3194 3194 3196 3196 3196 3193 3196 3199 3198 3197 3197 3197 3196 3196 3196 3195 3194 3194 3194 3195 3196 3197 3198 3198 3198 3200 3200 3200 3201 3201 3202 3201 3202 3202 3201 3202 3202 3202 3202 3202 3203 3202 3201 3200 3200 3199 3199 3198 3197
3194 3196 3196 3197 3196 3196 3198 3198 3197 3196 3197 3197 3197 3196 3196 3195 3194 3194 3194 3195 3196 3197 3198 3198 3199 3199 3199 3200 3201 3201 3202 3200 3201 3201 3201 3201 3201 3202 3202 3202 3202 3202 3202 3201 3200 3199 3198 3197 3196
3195 3195 3197 3196 3196 3195 3196 3197 3197 3198 3197 3197 3197 3196 3195 3194 3194 3193 3194 3195 3196 3197 3197 3197 3198 3199 3200 3201 3201 3202 3202 3201 3201 3201 3200 3200 3200 3200 3202 3202 3203 3202 3201 3200 3199 3198 3196 3195 3194
3196 3196 3196 3194 3196 3195 3195 3196 3197 3197 3197 3197 3196 3196 3195 3193 3193 3194 3194 3195 3195 3195 3196 3197 3198 3199 3200 3201 3201 3201 3202 3200 3200 3199 3198 3198 3198 3199 3200 3200 3201 3201 3200 3199 3197 3196 3195 3193 3193
3196 3197 3196 3195 3196 3196 3196 3196 3197 3197 3197 3197 3196 3195 3195 3193 3193 3193 3193 3194 3194 3194 3195 3197 3198 3199 3200 3200 3201 3201 3201 3200 3200 3199 3197 3196 3196 3198 3198 3199 3199 3199 3199 3197 3196 3194 3193 3192 3191
3195 3196 3196 3195 3196 3197 3195 3195 3196 3196 3195 3196 3195 3195 3194 3193 3192 3192 3192 3193 3193 3194 3195 3197 3198 3198 3199 3199 3200 3200 3199 3199 3198 3197 3196 3193 3196 3197 3198 3199 3198 3197 3196 3195 3194 3194 3192 3191 3190
3195 3197 3196 3196 3196 3196 3194 3194 3195 3195 3194 3195 3194 3193 3193 3192 3192 3192 3192 3192 3193 3194 3195 3196 3197 3198 3198 3198 3198 3198 3198 3197 3196 3196 3196 3194 3194 3196 3197 3197 3197 3195 3194 3193 3192 3191 3190 3189 3188
3195 3195 3195 3193 3194 3195 3194 3194 3193 3194 3193 3193 3193 3192 3192 3191 3190 3191 3192 3193 3193 3194 3195 3196 3197 3197 3197 3197 3197 3196 3195 3195 3195 3195 3196 3195 3194 3193 3194 3194 3194 3194 3192 3191 3190 3189 3188 3187 3186
3192 3194 3192 3192 3192 3192 3193 3193 3192 3192 3192 3192 3192 3191 3191 3190 3190 3190 3191 3192 3193 3193 3194 3195 3196 3196 3196 3195 3195 3194 3193 3193 3193 3193 3194 3193 3192 3192 3192 3192 3191 3191 3191 3190 3188 3187 3186 3185 3183
3192 3190 3190 3190 3189 3189 3191 3192 3191 3191 3190 3190 3189 3189 3189 3189 3189 3190 3189 3190 3191 3192 3193 3194 3194 3195 3194 3193 3192 3191 3191 3190 3191 3192 3192 3192 3191 3191 3191 3190 3190 3189 3188 3187 3186 3185 3184 3183 3184
3189 3188 3188 3187 3187 3187 3188 3188 3189 3188 3188 3187 3187 3187 3187 3186 3186 3188 3188 3189 3189 3191 3191 3192 3192 3193 3192 3191 3190 3189 3188 3188 3189 3191 3192 3191 3190 3189 3189 3188 3188 3187 3186 3186 3185 3184 3184 3183 3182
3185 3185 3185 3185 3184 3184 3184 3184 3185 3185 3185 3185 3185 3184 3184 3183 3183 3184 3186 3187 3188 3188 3190 3190 3191 3191 3190 3189 3189 3188 3187 3185 3186 3188 3189 3190 3189 3187 3186 3185 3184 3185 3185 3184 3184 3184 3183 3182 3181
3183 3183 3181 3181 3181 3181 3180 3180 3179 3180 3181 3182 3182 3182 3182 3182 3181 3181 3182 3184 3186 3186 3186 3187 3189 3189 3188 3187 3186 3187 3186 3185 3185 3186 3188 3187 3186 3185 3183 3183 3182 3182 3182 3182 3182 3182 3181 3180 3179
3181 3180 3181 3178 3177 3178 3179 3180 3178 3176 3177 3177 3177 3178 3178 3177 3178 3178 3179 3180 3182 3183 3184 3185 3185 3186 3185 3185 3184 3184 3184 3184 3184 3184 3185 3186 3185 3184 3182 3180 3180 3180 3180 3180 3180 3179 3179 3178 3178
3178 3178 3178 3177 3175 3176 3176 3177 3174 3173 3173 3172 3172 3173 3174 3174 3174 3174 3175 3176 3178 3180 3181 3182 3182 3182 3183 3182 3182 3182 3183 3183 3182 3182 3182 3181 3182 3183 3182 3179 3178 3177 3177 3178 3178 3177 3177 3176 3176
3175 3176 3176 3176 3174 3172 3174 3174 3174 3171 3169 3167 3166 3166 3168 3169 3170 3171 3172 3172 3174 3176 3178 3179 3179 3179 3180 3180 3180 3180 3180 3181 3180 3179 3180 3180 3179 3179 3179 3178 3177 3176 3175 3175 3176 3175 3174 3173 3173
3172 3173 3173 3173 3172 3170 3170 3169 3169 3168 3165 3163 3160 3158 3162 3164 3166 3167 3167 3167 3168 3171 3173 3175 3176 3176 3177 3177 3177 3178 3177 3177 3178 3177 3177 3177 3176 3177 3177 3176 3175 3174 3174 3173 3173 3173 3172 3171 3171
3170 3170 3170 3169 3166 3165 3165 3163 3164 3163 3158 3157 3156 3153 3155 3157 3160 3160 3162 3161 3163 3164 3167 3169 3171 3173 3173 3174 3174 3174 3174 3174 3174 3174 3174 3175 3175 3175 3175 3175 3174 3174 3173 3171 3171 3171 3170 3169 3167
3167 3166 3166 3166 3164 3162 3159 3156 3154 3153 3150 3150 3150 3149 3149 3150 3152 3154 3155 3156 3157 3158 3160 3164 3166 3168 3169 3170 3170 3170 3171 3171 3172 3172 3172 3173 3173 3173 3174 3173 3172 3172 3171 3170 3169 3168 3167 3166 3165
3163 3162 3161 3160 3160 3158 3158 3149 3150 3149 3147 3145 3144 3144 3144 3145 3146 3146 3147 3147 3150 3153 3155 3156 3160 3163 3164 3165 3166 3167 3168 3168 3168 3169 3170 3170 3171 3170 3170 3171 3170 3170 3169 3168 3166 3166 3165 3164 3164
3160 3157 3156 3156 3155 3154 3150 3149 3143 3141 3142 3142 3141 3140 3140 3140 3139 3140 3141 3143 3146 3148 3152 3154 3157 3156 3157 3159 3161 3163 3163 3164 3164 3165 3167 3168 3168 3168 3168 3168 3168 3168 3167 3166 3165 3163 3163 3162 3160
3154 3154 3153 3152 3151 3147 3143 3144 3140 3138 3139 3138 3138 3137 3134 3133 3132 3133 3133 3136 3138 3141 3143 3144 3146 3147 3151 3154 3156 3157 3158 3160 3161 3162 3164 3165 3165 3165 3165 3165 3165 3164 3164 3163 3161 3160 3159 3158 3156
3151 3153 3150 3145 3142 3139 3141 3142 3138 3136 3135 3134 3134 3133 3133 3129 3127 3127 3126 3127 3128 3131 3133 3136 3140 3141 3144 3147 3150 3152 3153 3156 3157 3158 3159 3161 3161 3162 3162 3162 3161 3161 3160 3159 3158 3156 3155 3153 3152
3150 3151 3148 3143 3136 3137 3138 3134 3132 3132 3131 3129 3127 3127 3127 3127 3126 3125 3123 3122 3122 3123 3126 3127 3130 3133 3135 3138 3142 3145 3148 3150 3152 3154 3155 3156 3157 3158 3158 3158 3157 3158 3157 3156 3154 3153 3151 3149 3147
3147 3147 3146 3144 3141 3135 3130 3131 3129 3127 3127 3126 3125 3124 3123 3122 3121 3121 3119 3118 3115 3115 3114 3119 3122 3126 3128 3131 3135 3138 3141 3144 3146 3149 3151 3152 3152 3153 3153 3153 3154 3153 3152 3151 3149 3149 3148 3145 3143
3144 3144 3144 3142 3137 3129 3121 3123 3119 3122 3122 3123 3122 3121 3121 3119 3115 3115 3113 3109 3107 3105 3104 3107 3113 3117 3121 3124 3128 3132 3136 3139 3141 3143 3145 3146 3146 3146 3148 3147 3147 3147 3146 3145 3144 3144 3142 3141 3138
3138 3138 3139 3138 3136 3130 3121 3116 3116 3117 3118 3117 3116 3114 3112 3112 3108 3107 3105 3102 3100 3096 3096 3099 3105 3109 3113 3115 3122 3125 3129 3132 3134 3137 3138 3139 3139 3140 3141 3142 3141 3141 3139 3139 3139 3138 3135 3134 3133
3131 3131 3133 3131 3128 3124 3124 3102 3109 3110 3112 3111 3110 3107 3104 3102 3100 3100 3098 3095 3094 3092 3091 3093 3096 3100 3105 3110 3114 3118 3121 3125 3128 3130 3132 3132 3133 3133 3134 3134 3134 3133 3134 3132 3131 3130 3127 3125 3124